Simultaneous Nadir Overpasses (SNOs) Predictions

Prediction of SNOs between NOAA-19 and NPP Satellite Orbit:

Table of predicted SNOs for the next 14.0 days since TLE Epoch: 6/26/2015
Index Date (NOAA-19) Time (NOAA-19) Lat,Lon (NOAA-19) SZA (NOAA-19 ) Date (NPP) Time (NPP) Lat,Lon (NPP) SZA (NPP ) Distance(km) Time Diff (sec)
1 06/27/2015 08:27:58 -81.03,-179.34 118.53 06/27/2015 08:29:11 -81.03,-179.45 118.55 1.89 73
2 06/27/2015 09:19:04 81.03, -12.25 61.50 06/27/2015 09:19:56 81.03, -12.15 61.46 1.68 52
3 06/27/2015 10:10:01 -81.03, 155.01 118.50 06/27/2015 10:10:41 -81.03, 155.13 118.54 2.00 40
4 06/27/2015 11:01:06 81.03, -37.52 61.47 06/27/2015 11:01:26 81.03, -37.58 61.47 1.03 20
5 06/27/2015 11:52:03 -81.03, 129.74 118.53 06/27/2015 11:52:11 -81.03, 129.70 118.53 0.76 8
6 06/27/2015 12:43:07 81.02, -62.80 61.44 06/27/2015 12:42:54 81.02, -62.64 61.42 2.91 13
7 06/27/2015 13:34:04 -81.02, 104.47 118.56 06/27/2015 13:33:39 -81.02, 104.64 118.58 3.10 25
8 06/27/2015 14:25:09 81.02, -88.07 61.41 06/27/2015 14:24:24 81.02, -88.07 61.43 0.41 45
9 06/27/2015 15:16:06 -81.02, 79.20 118.59 06/27/2015 15:15:09 -81.02, 79.22 118.57 0.40 57
10 07/10/2015 12:48:01 -81.03, 115.32 117.32 07/10/2015 12:49:08 -81.04, 115.25 117.34 1.39 67
11 07/10/2015 13:39:03 81.03, -77.26 62.67 07/10/2015 13:39:52 81.03, -77.25 62.64 0.51 49
12 07/10/2015 14:30:03 -81.03, 90.05 117.34 07/10/2015 14:30:37 -81.02, 90.18 117.38 2.53 34
13 07/10/2015 15:21:05 81.03,-102.54
